Rensselaer, IN

7:24 PM CDT on April 25, 2017 (GMT -0500)
Jasper County

Weather History for KRZL - March, 2013

Change the Weather History Date:

Wednesday, March 6, 2013

  Actual Average (KIKK) Record (KIKK)
Temperature  
Mean Temperature 31 °F -  
Max Temperature 32 °F 43 °F 73 °F (1983)
Min Temperature 30 °F 25 °F -5 °F (2015)
Degree Days  
Heating Degree Days 34    
Moisture  
Dew Point 29 °F    
Average Humidity 91    
Maximum Humidity 100    
Minimum Humidity 87    
Precipitation  
Precipitation 0.00 in - - ()
Sea Level Pressure  
Sea Level Pressure 30.16 in    
Wind  
Wind Speed 10 mph (NW)    
Max Wind Speed 15 mph    
Max Gust Speed 22 mph    
Visibility 10 miles    
Events Snow    
Averages and records for this station are not official NWS values.
T = Trace of Precipitation, MM = Missing Value Source: NWS Daily Summary

Daily Weather History Graph

Daily Weather History Graph

Search for Another Location

Airport or City:

Trip Planner

Search our weather history database for the weather conditions in past years. The results will help you decide how hot, cold, wet, or windy it might be!

Date:

Astronomy

Mar. 06, 2013 Rise Set
Actual Time 6:14 AM CST 5:45 PM CST
Civil Twilight 5:47 AM CST 6:13 PM CST
Nautical Twilight 5:15 AM CST 6:45 PM CST
Astronomical Twilight 4:43 AM CST 7:17 PM CST
Moon 2:25 AM CST (3/6) 12:25 PM CST (3/6)
Length of Visible Light 12h 26m
Length of Day
11h 31m
Waning Crescent, 29% of the Moon is Illuminated
Mar 6
Waning Crescent
Mar 11
New
Mar 19
First Quarter
Mar 27
Full
Apr 2
Last Quarter

Hourly Weather History & Observations

Time (CST) Temp. Windchill Dew Point Humidity Pressure Visibility Wind Dir Wind Speed Gust Speed Precip Events Conditions
12:15 AM 30.2 °F 20.8 °F 30.2 °F 100% 29.90 in 5.0 mi North 11.5 mph - N/A Snow Light Snow
12:35 AM 30.2 °F 20.8 °F 30.2 °F 100% 29.91 in 10.0 mi North 11.5 mph 16.1 mph N/A   Overcast
12:55 AM 32.0 °F 22.5 °F 30.2 °F 93% 29.92 in 10.0 mi North 12.7 mph 17.3 mph N/A   Overcast
1:15 AM 32.0 °F 22.5 °F 30.2 °F 93% 29.93 in 10.0 mi North 12.7 mph - N/A   Overcast
1:35 AM 32.0 °F 23.6 °F 28.4 °F 87% 29.94 in 10.0 mi North 10.4 mph 19.6 mph N/A   Overcast
1:55 AM 30.2 °F 21.3 °F 28.4 °F 93% 29.95 in 10.0 mi North 10.4 mph - N/A   Mostly Cloudy
2:15 AM 32.0 °F 24.2 °F 28.4 °F 87% 29.96 in 10.0 mi NNW 9.2 mph - N/A   Mostly Cloudy
2:35 AM 32.0 °F 25.6 °F 28.4 °F 87% 29.96 in 10.0 mi NNW 6.9 mph - N/A   Overcast
2:55 AM 32.0 °F 24.2 °F 28.4 °F 87% 29.96 in 10.0 mi NNW 9.2 mph - N/A   Overcast
3:15 AM 32.0 °F 24.8 °F 28.4 °F 87% 29.98 in 10.0 mi NNW 8.1 mph - N/A   Overcast
3:35 AM 32.0 °F 24.2 °F 28.4 °F 87% 29.99 in 10.0 mi NNW 9.2 mph - N/A   Overcast
3:55 AM 32.0 °F 23.6 °F 28.4 °F 87% 29.99 in 10.0 mi North 10.4 mph 16.1 mph N/A   Overcast
4:15 AM 32.0 °F 23.6 °F 28.4 °F 87% 30.01 in 10.0 mi NNW 10.4 mph 16.1 mph N/A   Mostly Cloudy
4:55 AM 32.0 °F 22.5 °F 28.4 °F 87% 30.04 in 10.0 mi NW 12.7 mph 17.3 mph N/A   Overcast
5:15 AM 32.0 °F 23.0 °F 28.4 °F 87% 30.05 in 10.0 mi NNW 11.5 mph - N/A   Overcast
5:35 AM 32.0 °F 23.6 °F 28.4 °F 87% 30.07 in 10.0 mi NNW 10.4 mph - N/A   Overcast
5:55 AM 32.0 °F 23.0 °F 30.2 °F 93% 30.08 in 10.0 mi NNW 11.5 mph 16.1 mph N/A   Overcast
6:15 AM 32.0 °F 22.5 °F 30.2 °F 93% 30.09 in 10.0 mi NNW 12.7 mph 18.4 mph N/A   Overcast
6:35 AM 32.0 °F 23.0 °F 30.2 °F 93% 30.10 in 10.0 mi NNW 11.5 mph 19.6 mph N/A   Overcast
6:55 AM 32.0 °F 24.2 °F 28.4 °F 87% 30.11 in 10.0 mi NW 9.2 mph 21.9 mph N/A   Overcast
7:15 AM 30.2 °F 21.9 °F 28.4 °F 93% 30.12 in 10.0 mi NW 9.2 mph - N/A   Overcast
7:35 AM 32.0 °F 23.0 °F 28.4 °F 87% 30.12 in 10.0 mi NNW 11.5 mph 16.1 mph N/A   Overcast
8:15 AM 32.0 °F 24.8 °F 28.4 °F 87% 30.14 in 10.0 mi NW 8.1 mph - N/A   Overcast
8:35 AM 32.0 °F 22.1 °F 30.2 °F 93% 30.15 in 10.0 mi NW 13.8 mph 17.3 mph N/A   Overcast
8:55 AM 32.0 °F 23.0 °F 30.2 °F 93% 30.16 in 10.0 mi NW 11.5 mph - N/A   Overcast
9:15 AM 32.0 °F 24.8 °F 30.2 °F 93% 30.17 in 10.0 mi WNW 8.1 mph - N/A   Overcast
9:35 AM 32.0 °F 23.0 °F 28.4 °F 87% 30.18 in 7.0 mi WNW 11.5 mph - N/A   Overcast
9:55 AM 32.0 °F 23.6 °F 28.4 °F 87% 30.19 in 5.0 mi WNW 10.4 mph - N/A   Overcast
10:15 AM 32.0 °F 23.0 °F 30.2 °F 93% 30.19 in 5.0 mi WNW 11.5 mph - N/A   Overcast
10:55 AM 32.0 °F 22.5 °F 30.2 °F 93% 30.20 in 7.0 mi WNW 12.7 mph 17.3 mph N/A   Overcast
11:15 AM 32.0 °F 23.0 °F 30.2 °F 93% 30.20 in 7.0 mi WNW 11.5 mph - N/A   Overcast
11:35 AM 32.0 °F 23.0 °F 30.2 °F 93% 30.21 in 10.0 mi WNW 11.5 mph - N/A   Overcast
11:55 AM 32.0 °F 24.2 °F 30.2 °F 93% 30.21 in 10.0 mi WNW 9.2 mph 18.4 mph N/A   Overcast
12:15 PM 32.0 °F 23.0 °F 30.2 °F 93% 30.20 in 10.0 mi WNW 11.5 mph 16.1 mph N/A   Overcast
12:55 PM 32.0 °F 23.0 °F 30.2 °F 93% 30.20 in 10.0 mi NW 11.5 mph 17.3 mph N/A   Overcast
1:15 PM 32.0 °F 24.2 °F 30.2 °F 93% 30.20 in 10.0 mi WNW 9.2 mph - N/A   Overcast
1:35 PM 32.0 °F 24.8 °F 30.2 °F 93% 30.20 in 10.0 mi WNW 8.1 mph - N/A   Overcast
1:55 PM 32.0 °F 24.2 °F 30.2 °F 93% 30.20 in 10.0 mi WNW 9.2 mph - N/A   Overcast
2:15 PM 32.0 °F 25.6 °F 30.2 °F 93% 30.20 in 10.0 mi WNW 6.9 mph - N/A   Overcast
2:35 PM 32.0 °F 23.6 °F 30.2 °F 93% 30.21 in 10.0 mi West 10.4 mph - N/A   Overcast
2:55 PM 32.0 °F 24.2 °F 30.2 °F 93% 30.22 in 10.0 mi WNW 9.2 mph - N/A   Overcast
3:15 PM 32.0 °F 23.6 °F 30.2 °F 93% 30.22 in 10.0 mi West 10.4 mph - N/A   Overcast
3:35 PM 32.0 °F 22.5 °F 30.2 °F 93% 30.23 in 10.0 mi West 12.7 mph 17.3 mph N/A   Overcast
3:55 PM 32.0 °F 22.5 °F 30.2 °F 93% 30.23 in 10.0 mi WNW 12.7 mph 16.1 mph N/A   Overcast
4:15 PM 32.0 °F 22.5 °F 30.2 °F 93% 30.24 in 10.0 mi West 12.7 mph 17.3 mph N/A   Overcast
4:35 PM 32.0 °F 21.6 °F 30.2 °F 93% 30.24 in 10.0 mi WNW 15.0 mph 18.4 mph N/A   Overcast
4:55 PM 32.0 °F 23.6 °F 30.2 °F 93% 30.25 in 10.0 mi WNW 10.4 mph - N/A   Overcast
5:15 PM 32.0 °F 23.0 °F 30.2 °F 93% 30.25 in 10.0 mi WNW 11.5 mph - N/A   Overcast
5:35 PM 32.0 °F 23.6 °F 30.2 °F 93% 30.26 in 10.0 mi WNW 10.4 mph - N/A   Overcast
5:55 PM 32.0 °F 24.2 °F 30.2 °F 93% 30.27 in 10.0 mi West 9.2 mph - N/A   Overcast
6:15 PM 32.0 °F 25.6 °F 30.2 °F 93% 30.27 in 10.0 mi West 6.9 mph - N/A   Overcast
6:35 PM 32.0 °F 24.2 °F 30.2 °F 93% 30.27 in 10.0 mi West 9.2 mph - N/A   Overcast
6:55 PM 32.0 °F 24.2 °F 30.2 °F 93% 30.28 in 10.0 mi West 9.2 mph - N/A   Overcast
7:15 PM 32.0 °F 24.2 °F 30.2 °F 93% 30.28 in 10.0 mi West 9.2 mph - N/A   Overcast
7:35 PM 32.0 °F 24.2 °F 28.4 °F 87% 30.29 in 10.0 mi West 9.2 mph - N/A   Overcast
7:55 PM 32.0 °F 24.8 °F 28.4 °F 87% 30.28 in 10.0 mi WNW 8.1 mph - N/A   Overcast
8:15 PM 32.0 °F 24.2 °F 28.4 °F 87% 30.28 in 10.0 mi WNW 9.2 mph - N/A   Overcast
8:35 PM 32.0 °F 26.4 °F 28.4 °F 87% 30.28 in 10.0 mi NW 5.8 mph - N/A   Overcast
8:55 PM 32.0 °F 25.6 °F 28.4 °F 87% 30.28 in 10.0 mi WNW 6.9 mph - N/A   Overcast
9:15 PM 32.0 °F 26.4 °F 28.4 °F 87% 30.28 in 10.0 mi WNW 5.8 mph - N/A   Overcast
9:35 PM 32.0 °F 24.2 °F 28.4 °F 87% 30.28 in 10.0 mi West 9.2 mph - N/A   Overcast
9:55 PM 32.0 °F 24.8 °F 28.4 °F 87% 30.29 in 10.0 mi WNW 8.1 mph - N/A   Overcast
10:15 PM 30.2 °F 22.6 °F 28.4 °F 93% 30.29 in 10.0 mi WNW 8.1 mph - N/A   Overcast
10:35 PM 30.2 °F 22.6 °F 28.4 °F 93% 30.29 in 10.0 mi WNW 8.1 mph - N/A   Overcast
10:55 PM 30.2 °F 22.6 °F 28.4 °F 93% 30.28 in 10.0 mi West 8.1 mph - N/A   Overcast
11:15 PM 30.2 °F 24.3 °F 28.4 °F 93% 30.29 in 10.0 mi WNW 5.8 mph - N/A   Overcast
11:35 PM 30.2 °F 25.4 °F 28.4 °F 93% 30.28 in 7.0 mi WNW 4.6 mph - N/A   Overcast
11:55 PM 30.2 °F 26.7 °F 28.4 °F 93% 30.28 in 7.0 mi WNW 3.5 mph - N/A   Overcast